"FILENAME","TIMESTAMP","SAMPLE","STATION","SAMPLE_DATE","SAMPLE_TIME","DEPTH","DEPTH_UNITS","TOTALQ","TOTALV","TOTALU","FECALQ","FECALV","FECALU","ENTEROQ","ENTEROV","ENTEROU",
"200211COLIPL.csv","2004JUN22104012","1101021404","D1","20021101",858,,"m","e",4,"CFU/100 mL","e",4,"CFU/100 mL","<",2,"CFU/100 mL",
"200211COLIPL.csv","2004JUN22104012","1101021405","D2","20021101",915,,"m","e",4,"CFU/100 mL","<",2,"CFU/100 mL","<",2,"CFU/100 mL",
"200211COLIPL.csv","2004JUN22104012","1101021406","D3","20021101",938,,"m","e",2,"CFU/100 mL","e",2,"CFU/100 mL","e",2,"CFU/100 mL",
"200211COLIPL.csv","2004JUN22104012","1101021407","D4","20021101",1135,,"m","e",100,"CFU/100 mL","<",2,"CFU/100 mL","<",2,"CFU/100 mL",
"200211COLIPL.csv","2004JUN22104012","1101021408","D5","20021101",1147,,"m","e",6,"CFU/100 mL","<",2,"CFU/100 mL","<",2,"CFU/100 mL",
"200211COLIPL.csv","2004JUN22104012","1101021409","D6","20021101",1115,,"m","e",6,"CFU/100 mL","<",2,"CFU/100 mL","<",2,"CFU/100 mL",
"200211COLIPL.csv","2004JUN22104012","1101021410","D7","20021101",1054,,"m","e",24,"CFU/100 mL","<",2,"CFU/100 mL","<",2,"CFU/100 mL",
"200211COLIPL.csv","2004JUN22104012","1101021411","D8","20021101",1030,,"m","e",40,"CFU/100 mL","e",28,"CFU/100 mL","e",2,"CFU/100 mL",
"200211COLIPL.csv","2004JUN22104012","1101021412","D9","20021101",1011,,"m","",1300,"CFU/100 mL","",72,"CFU/100 mL","",52,"CFU/100 mL",
"200211COLIPL.csv","2004JUN22104012","1102021143","A1","20021102",903,1,"m","<",2,"CFU/100 mL","<",2,"CFU/100 mL","<",2,"CFU/100 mL",
"200211COLIPL.csv","2004JUN22104012","1102021144","A1","20021102",903,12,"m","<",50,"CFU/100 mL","<",2,"CFU/100 mL","<",2,"CFU/100 mL",
"200211COLIPL.csv","2004JUN22104012","1102021145","A1","20021102",903,18,"m","",,"CFU/100 mL","<",2,"CFU/100 mL","<",2,"CFU/100 mL",
"200211COLIPL.csv","2004JUN22104012","1102021146","A11","20021102",932,40,"m","<",50,"CFU/100 mL","<",2,"CFU/100 mL","<",2,"CFU/100 mL",
"200211COLIPL.csv","2004JUN22104012","1102021147","A13","20021102",950,40,"m","<",200,"CFU/100 mL","<",2,"CFU/100 mL","<",2,"CFU/100 mL",
"200211COLIPL.csv","2004JUN22104012","1102021148","A17","20021102",941,60,"m","<",50,"CFU/100 mL","e",4,"CFU/100 mL","<",2,"CFU/100 mL",
"200211COLIPL.csv","2004JUN22104012","1102021149","A6","20021102",958,1,"m","<",50,"CFU/100 mL","<",2,"CFU/100 mL","<",2,"CFU/100 mL",
"200211COLIPL.csv","2004JUN22104012","1102021150","A6","20021102",958,12,"m","<",200,"CFU/100 mL","<",2,"CFU/100 mL","<",2,"CFU/100 mL",
"200211COLIPL.csv","2004JUN22104012","1102021151","A6","20021102",958,18,"m","<",50,"CFU/100 mL","<",2,"CFU/100 mL","<",2,"CFU/100 mL",
"200211COLIPL.csv","2004JUN22104012","1102021152","A7","20021102",919,1,"m","<",50,"CFU/100 mL","<",2,"CFU/100 mL","<",2,"CFU/100 mL",
"200211COLIPL.csv","2004JUN22104012","1102021153","A7","20021102",919,12,"m","<",50,"CFU/100 mL","<",2,"CFU/100 mL","<",2,"CFU/100 mL",
"200211COLIPL.csv","2004JUN22104012","1102021154","A7","20021102",919,18,"m","<",50,"CFU/100 mL","<",2,"CFU/100 mL","<",2,"CFU/100 mL",
"200211COLIPL.csv","2004JUN22104012","1102021155","C4","20021102",1124,1,"m","<",50,"CFU/100 mL","<",2,"CFU/100 mL","<",2,"CFU/100 mL",
"200211COLIPL.csv","2004JUN22104012","1102021156","C4","20021102",1124,3,"m","<",50,"CFU/100 mL","<",2,"CFU/100 mL","<",2,"CFU/100 mL",
"200211COLIPL.csv","2004JUN22104012","1102021157","C4","20021102",1124,6,"m","e",100,"CFU/100 mL","e",2,"CFU/100 mL","<",2,"CFU/100 mL",
"200211COLIPL.csv","2004JUN22104012","1102021158","C5","20021102",1113,1,"m","<",200,"CFU/100 mL","<",2,"CFU/100 mL","e",2,"CFU/100 mL",
"200211COLIPL.csv","2004JUN22104012","1102021159","C5","20021102",1113,3,"m","<",50,"CFU/100 mL","<",2,"CFU/100 mL","<",2,"CFU/100 mL",
"200211COLIPL.csv","2004JUN22104012","1102021160","C5","20021102",1113,6,"m","<",50,"CFU/100 mL","<",2,"CFU/100 mL","<",2,"CFU/100 mL",
"200211COLIPL.csv","2004JUN22104012","1102021161","C6","20021102",1102,1,"m","e",50,"CFU/100 mL","<",2,"CFU/100 mL","<",2,"CFU/100 mL",
"200211COLIPL.csv","2004JUN22104012","1102021162","C6","20021102",1102,3,"m","<",50,"CFU/100 mL","<",2,"CFU/100 mL","<",2,"CFU/100 mL",
"200211COLIPL.csv","2004JUN22104012","1102021163","C6","20021102",1102,6,"m","<",50,"CFU/100 mL","<",2,"CFU/100 mL","<",2,"CFU/100 mL",
"200211COLIPL.csv","2004JUN22104012","1102021164","C7","20021102",1016,1,"m","<",50,"CFU/100 mL","<",2,"CFU/100 mL","<",2,"CFU/100 mL",
"200211COLIPL.csv","2004JUN22104012","1102021165","C7","20021102",1016,12,"m","e",50,"CFU/100 mL","<",2,"CFU/100 mL","<",2,"CFU/100 mL",
"200211COLIPL.csv","2004JUN22104012","1102021166","C7","20021102",1016,18,"m","<",200,"CFU/100 mL","<",2,"CFU/100 mL","<",2,"CFU/100 mL",
"200211COLIPL.csv","2004JUN22104012","1102021167","C8","20021102",1037,1,"m","<",50,"CFU/100 mL","<",2,"CFU/100 mL","<",2,"CFU/100 mL",
"200211COLIPL.csv","2004JUN22104012","1102021168","C8","20021102",1037,12,"m","<",50,"CFU/100 mL","<",2,"CFU/100 mL","<",2,"CFU/100 mL",
"200211COLIPL.csv","2004JUN22104012","1102021169","C8","20021102",1037,18,"m","<",50,"CFU/100 mL","<",2,"CFU/100 mL","<",2,"CFU/100 mL",
"200211COLIPL.csv","2004JUN22104012","1104021424","A1","20021104",1142,1,"m","<",50,"CFU/100 mL","<",2,"CFU/100 mL","<",2,"CFU/100 mL",
"200211COLIPL.csv","2004JUN22104012","1104021425","A1","20021104",1142,12,"m","<",200,"CFU/100 mL","<",2,"CFU/100 mL","<",2,"CFU/100 mL",
"200211COLIPL.csv","2004JUN22104012","1104021426","A1","20021104",1142,18,"m","e",6,"CFU/100 mL","e",2,"CFU/100 mL","<",2,"CFU/100 mL",
"200211COLIPL.csv","2004JUN22104012","1104021427","A11","20021104",1135,40,"m","<",50,"CFU/100 mL","e",4,"CFU/100 mL","<",2,"CFU/100 mL",
"200211COLIPL.csv","2004JUN22104012","1104021428","A13","20021104",1118,40,"m","e",12,"CFU/100 mL","e",6,"CFU/100 mL","<",2,"CFU/100 mL",
"200211COLIPL.csv","2004JUN22104012","1104021429","A17","20021104",1125,60,"m","",1200,"CFU/100 mL","",110,"CFU/100 mL","<",2,"CFU/100 mL",
"200211COLIPL.csv","2004JUN22104012","1104021430","A6","20021104",1041,1,"m","<",50,"CFU/100 mL","<",2,"CFU/100 mL","<",2,"CFU/100 mL",
"200211COLIPL.csv","2004JUN22104012","1104021431","A6","20021104",1041,12,"m","<",200,"CFU/100 mL","<",2,"CFU/100 mL","<",2,"CFU/100 mL",
"200211COLIPL.csv","2004JUN22104012","1104021432","A6","20021104",1041,18,"m","<",50,"CFU/100 mL","e",2,"CFU/100 mL","<",2,"CFU/100 mL",
"200211COLIPL.csv","2004JUN22104012","1104021433","A7","20021104",1108,1,"m","<",50,"CFU/100 mL","<",2,"CFU/100 mL","<",2,"CFU/100 mL",
"200211COLIPL.csv","2004JUN22104012","1104021434","A7","20021104",1108,12,"m","<",50,"CFU/100 mL","<",2,"CFU/100 mL","e",2,"CFU/100 mL",
"200211COLIPL.csv","2004JUN22104012","1104021435","A7","20021104",1108,18,"m","<",50,"CFU/100 mL","e",2,"CFU/100 mL","<",2,"CFU/100 mL",
"200211COLIPL.csv","2004JUN22104012","1104021436","C4","20021104",1153,1,"m","<",50,"CFU/100 mL","<",2,"CFU/100 mL","<",2,"CFU/100 mL",
"200211COLIPL.csv","2004JUN22104012","1104021437","C4","20021104",1153,3,"m","<",50,"CFU/100 mL","<",2,"CFU/100 mL","<",2,"CFU/100 mL",
"200211COLIPL.csv","2004JUN22104012","1104021438","C4","20021104",1153,6,"m","<",50,"CFU/100 mL","<",2,"CFU/100 mL","<",2,"CFU/100 mL",
"200211COLIPL.csv","2004JUN22104012","1104021439","C5","20021104",1058,1,"m","<",50,"CFU/100 mL","<",2,"CFU/100 mL","<",2,"CFU/100 mL",
"200211COLIPL.csv","2004JUN22104012","1104021440","C5","20021104",1058,3,"m","<",50,"CFU/100 mL","<",2,"CFU/100 mL","<",2,"CFU/100 mL",
"200211COLIPL.csv","2004JUN22104012","1104021441","C5","20021104",1058,6,"m","<",50,"CFU/100 mL","<",2,"CFU/100 mL","<",2,"CFU/100 mL",
"200211COLIPL.csv","2004JUN22104012","1104021442","C6","20021104",1050,1,"m","<",50,"CFU/100 mL","<",2,"CFU/100 mL","<",2,"CFU/100 mL",
"200211COLIPL.csv","2004JUN22104012","1104021443","C6","20021104",1050,3,"m","<",200,"CFU/100 mL","<",2,"CFU/100 mL","<",2,"CFU/100 mL",
"200211COLIPL.csv","2004JUN22104012","1104021444","C6","20021104",1050,6,"m","<",50,"CFU/100 mL","<",2,"CFU/100 mL","<",2,"CFU/100 mL",
"200211COLIPL.csv","2004JUN22104012","1104021445","C7","20021104",1029,1,"m","",,"CFU/100 mL","<",2,"CFU/100 mL","<",2,"CFU/100 mL",
"200211COLIPL.csv","2004JUN22104012","1104021446","C7","20021104",1029,12,"m","<",200,"CFU/100 mL","<",2,"CFU/100 mL","<",2,"CFU/100 mL",
"200211COLIPL.csv","2004JUN22104012","1104021447","C7","20021104",1029,18,"m","<",50,"CFU/100 mL","e",6,"CFU/100 mL","<",2,"CFU/100 mL",
"200211COLIPL.csv","2004JUN22104012","1104021448","C8","20021104",1015,1,"m","",,"CFU/100 mL","<",2,"CFU/100 mL","<",2,"CFU/100 mL",
"200211COLIPL.csv","2004JUN22104012","1104021449","C8","20021104",1015,12,"m","<",200,"CFU/100 mL","<",2,"CFU/100 mL","<",2,"CFU/100 mL",
"200211COLIPL.csv","2004JUN22104012","1104021450","C8","20021104",1015,18,"m","<",200,"CFU/100 mL","e",2,"CFU/100 mL","<",2,"CFU/100 mL",
"200211COLIPL.csv","2004JUN22104012","1112021497","A10","20021112",1156,1,"m","e",4,"CFU/100 mL","<",2,"CFU/100 mL","<",2,"CFU/100 mL",
"200211COLIPL.csv","2004JUN22104012","1112021498","A10","20021112",1156,40,"m","e",500,"CFU/100 mL","",120,"CFU/100 mL","e",14,"CFU/100 mL",
"200211COLIPL.csv","2004JUN22104012","1112021499","A12","20021112",1123,1,"m","e",2,"CFU/100 mL","<",2,"CFU/100 mL","<",2,"CFU/100 mL",
"200211COLIPL.csv","2004JUN22104012","1112021500","A12","20021112",1123,40,"m","",130,"CFU/100 mL","e",36,"CFU/100 mL","e",8,"CFU/100 mL",
"200211COLIPL.csv","2004JUN22104012","1112021501","A14","20021112",1102,1,"m","<",2,"CFU/100 mL","<",2,"CFU/100 mL","<",2,"CFU/100 mL",
"200211COLIPL.csv","2004JUN22104012","1112021502","A14","20021112",1102,40,"m","e",700,"CFU/100 mL","",80,"CFU/100 mL","e",16,"CFU/100 mL",
"200211COLIPL.csv","2004JUN22104012","1112021503","A2","20021112",1140,1,"m","e",18,"CFU/100 mL","<",2,"CFU/100 mL","<",2,"CFU/100 mL",
"200211COLIPL.csv","2004JUN22104012","1112021504","A2","20021112",1140,40,"m","<",50,"CFU/100 mL","",52,"CFU/100 mL","e",6,"CFU/100 mL",
"200211COLIPL.csv","2004JUN22104012","1112021505","A2","20021112",1140,60,"m","",52,"CFU/100 mL","e",8,"CFU/100 mL","e",4,"CFU/100 mL",
"200211COLIPL.csv","2004JUN22104012","1112021506","A5","20021112",1047,1,"m","<",2,"CFU/100 mL","<",2,"CFU/100 mL","<",2,"CFU/100 mL",
"200211COLIPL.csv","2004JUN22104012","1112021507","A5","20021112",1047,40,"m","<",2,"CFU/100 mL","<",2,"CFU/100 mL","<",2,"CFU/100 mL",
"200211COLIPL.csv","2004JUN22104012","1112021508","A5","20021112",1047,60,"m","",1600,"CFU/100 mL","e",300,"CFU/100 mL","e",18,"CFU/100 mL",
"200211COLIPL.csv","2004JUN22104012","1112021509","B12","20021112",844,1,"m","e",6,"CFU/100 mL","<",2,"CFU/100 mL","<",2,"CFU/100 mL",
"200211COLIPL.csv","2004JUN22104012","1112021510","B12","20021112",844,40,"m","e",2,"CFU/100 mL","<",2,"CFU/100 mL","<",2,"CFU/100 mL",
"200211COLIPL.csv","2004JUN22104012","1112021511","B12","20021112",844,60,"m","",6000,"CFU/100 mL","e",950,"CFU/100 mL","e",200,"CFU/100 mL",
"200211COLIPL.csv","2004JUN22104012","1112021512","B12","20021112",844,80,"m","<",2,"CFU/100 mL","<",2,"CFU/100 mL","<",2,"CFU/100 mL",
"200211COLIPL.csv","2004JUN22104012","1112021513","B12","20021112",844,98,"m","",1200,"CFU/100 mL","e",250,"CFU/100 mL","e",14,"CFU/100 mL",
"200211COLIPL.csv","2004JUN22104012","1112021514","B2","20021112",1015,1,"m","<",2,"CFU/100 mL","<",2,"CFU/100 mL","<",2,"CFU/100 mL",
"200211COLIPL.csv","2004JUN22104012","1112021515","B2","20021112",1015,12,"m","e",20,"CFU/100 mL","<",2,"CFU/100 mL","<",2,"CFU/100 mL",
"200211COLIPL.csv","2004JUN22104012","1112021516","B2","20021112",1015,18,"m","e",32,"CFU/100 mL","e",8,"CFU/100 mL","<",2,"CFU/100 mL",
"200211COLIPL.csv","2004JUN22104012","1112021517","B3","20021112",949,1,"m","<",2,"CFU/100 mL","<",2,"CFU/100 mL","<",2,"CFU/100 mL",
"200211COLIPL.csv","2004JUN22104012","1112021518","B3","20021112",949,40,"m","",68,"CFU/100 mL","e",10,"CFU/100 mL","e",2,"CFU/100 mL",
"200211COLIPL.csv","2004JUN22104012","1112021519","B3","20021112",949,60,"m","e",450,"CFU/100 mL","",50,"CFU/100 mL","e",28,"CFU/100 mL",
"200211COLIPL.csv","2004JUN22104012","1112021520","B5","20021112",916,1,"m","<",2,"CFU/100 mL","<",2,"CFU/100 mL","<",2,"CFU/100 mL",
"200211COLIPL.csv","2004JUN22104012","1112021521","B5","20021112",916,40,"m","e",8,"CFU/100 mL","<",2,"CFU/100 mL","<",2,"CFU/100 mL",
"200211COLIPL.csv","2004JUN22104012","1112021522","B5","20021112",916,60,"m","e",350,"CFU/100 mL","",62,"CFU/100 mL","e",14,"CFU/100 mL",
"200211COLIPL.csv","2004JUN22104012","1112021523","B9","20021112",823,1,"m","e",18,"CFU/100 mL","<",2,"CFU/100 mL","<",2,"CFU/100 mL",
"200211COLIPL.csv","2004JUN22104012","1112021524","B9","20021112",823,40,"m","e",850,"CFU/100 mL","",72,"CFU/100 mL","e",8,"CFU/100 mL",
"200211COLIPL.csv","2004JUN22104012","1112021525","B9","20021112",823,60,"m","",3700,"CFU/100 mL","e",600,"CFU/100 mL","",88,"CFU/100 mL",
"200211COLIPL.csv","2004JUN22104012","1112021526","B9","20021112",823,80,"m","",14000,"CFU/100 mL","",3000,"CFU/100 mL","e",350,"CFU/100 mL",
"200211COLIPL.csv","2004JUN22104012","1112021527","B9","20021112",823,98,"m","",2200,"CFU/100 mL","e",300,"CFU/100 mL","",62,"CFU/100 mL",
"200211COLIPL.csv","2004JUN22104012","1113021556","A1","20021113",730,1,"m","<",2,"CFU/100 mL","<",2,"CFU/100 mL","<",2,"CFU/100 mL",
"200211COLIPL.csv","2004JUN22104012","1113021557","A1","20021113",730,12,"m","e",12,"CFU/100 mL","e",2,"CFU/100 mL","<",2,"CFU/100 mL",
"200211COLIPL.csv","2004JUN22104012","1113021558","A1","20021113",730,18,"m","e",38,"CFU/100 mL","e",14,"CFU/100 mL","<",2,"CFU/100 mL",
"200211COLIPL.csv","2004JUN22104012","1113021559","A6","20021113",847,1,"m","<",2,"CFU/100 mL","<",2,"CFU/100 mL","<",2,"CFU/100 mL",
"200211COLIPL.csv","2004JUN22104012","1113021560","A6","20021113",847,12,"m","e",10,"CFU/100 mL","e",4,"CFU/100 mL","<",2,"CFU/100 mL",
"200211COLIPL.csv","2004JUN22104012","1113021561","A6","20021113",847,18,"m","e",10,"CFU/100 mL","e",2,"CFU/100 mL","<",2,"CFU/100 mL",
"200211COLIPL.csv","2004JUN22104012","1113021562","A7","20021113",757,1,"m","<",2,"CFU/100 mL","e",2,"CFU/100 mL","e",2,"CFU/100 mL",
"200211COLIPL.csv","2004JUN22104012","1113021563","A7","20021113",757,12,"m","e",14,"CFU/100 mL","e",2,"CFU/100 mL","<",2,"CFU/100 mL",
"200211COLIPL.csv","2004JUN22104012","1113021564","A7","20021113",757,18,"m","e",24,"CFU/100 mL","e",2,"CFU/100 mL","<",2,"CFU/100 mL",
"200211COLIPL.csv","2004JUN22104012","1113021565","C4","20021113",1038,1,"m","e",2,"CFU/100 mL","<",2,"CFU/100 mL","<",2,"CFU/100 mL",
"200211COLIPL.csv","2004JUN22104012","1113021566","C4","20021113",1038,3,"m","e",2,"CFU/100 mL","<",2,"CFU/100 mL","<",2,"CFU/100 mL",
"200211COLIPL.csv","2004JUN22104012","1113021567","C4","20021113",1038,6,"m","<",2,"CFU/100 mL","e",2,"CFU/100 mL","<",2,"CFU/100 mL",
"200211COLIPL.csv","2004JUN22104012","1113021568","C5","20021113",1020,1,"m","<",2,"CFU/100 mL","<",2,"CFU/100 mL","<",2,"CFU/100 mL",
"200211COLIPL.csv","2004JUN22104012","1113021569","C5","20021113",1020,3,"m","<",2,"CFU/100 mL","<",2,"CFU/100 mL","<",2,"CFU/100 mL",
"200211COLIPL.csv","2004JUN22104012","1113021570","C5","20021113",1020,6,"m","<",2,"CFU/100 mL","<",2,"CFU/100 mL","<",2,"CFU/100 mL",
"200211COLIPL.csv","2004JUN22104012","1113021571","C6","20021113",1009,1,"m","<",2,"CFU/100 mL","<",2,"CFU/100 mL","<",2,"CFU/100 mL",
"200211COLIPL.csv","2004JUN22104012","1113021572","C6","20021113",1009,3,"m","<",2,"CFU/100 mL","<",2,"CFU/100 mL","<",2,"CFU/100 mL",
"200211COLIPL.csv","2004JUN22104012","1113021573","C6","20021113",1009,6,"m","e",2,"CFU/100 mL","<",2,"CFU/100 mL","<",2,"CFU/100 mL",
"200211COLIPL.csv","2004JUN22104012","1113021574","C7","20021113",918,1,"m","e",6,"CFU/100 mL","<",2,"CFU/100 mL","e",2,"CFU/100 mL",
"200211COLIPL.csv","2004JUN22104012","1113021575","C7","20021113",918,12,"m","e",2,"CFU/100 mL","e",2,"CFU/100 mL","<",2,"CFU/100 mL",
"200211COLIPL.csv","2004JUN22104012","1113021576","C7","20021113",918,18,"m","e",4,"CFU/100 mL","e",2,"CFU/100 mL","<",2,"CFU/100 mL",
"200211COLIPL.csv","2004JUN22104012","1113021577","C8","20021113",935,1,"m","<",2,"CFU/100 mL","<",2,"CFU/100 mL","<",2,"CFU/100 mL",
"200211COLIPL.csv","2004JUN22104013","1113021578","C8","20021113",935,12,"m","e",8,"CFU/100 mL","e",2,"CFU/100 mL","<",2,"CFU/100 mL",
"200211COLIPL.csv","2004JUN22104013","1113021579","C8","20021113",935,18,"m","e",100,"CFU/100 mL","e",22,"CFU/100 mL","<",2,"CFU/100 mL",
"200211COLIPL.csv","2004JUN22104013","1113021685","A11","20021113",809,40,"m","e",900,"CFU/100 mL","",94,"CFU/100 mL","e",14,"CFU/100 mL",
"200211COLIPL.csv","2004JUN22104013","1113021686","A13","20021113",838,40,"m","e",600,"CFU/100 mL","",56,"CFU/100 mL","e",10,"CFU/100 mL",
"200211COLIPL.csv","2004JUN22104013","1113021687","A17","20021113",819,60,"m","",80,"CFU/100 mL","e",20,"CFU/100 mL","e",20,"CFU/100 mL",
"200211COLIPL.csv","2004JUN22104013","1114021606","B1","20021114",1112,1,"m","e",2,"CFU/100 mL","<",2,"CFU/100 mL","<",2,"CFU/100 mL",
"200211COLIPL.csv","2004JUN22104013","1114021607","B1","20021114",1112,40,"m","<",2,"CFU/100 mL","<",2,"CFU/100 mL","<",2,"CFU/100 mL",
"200211COLIPL.csv","2004JUN22104013","1114021608","B1","20021114",1112,60,"m","<",2,"CFU/100 mL","<",2,"CFU/100 mL","<",2,"CFU/100 mL",
"200211COLIPL.csv","2004JUN22104013","1114021609","E10","20021114",929,1,"m","e",2,"CFU/100 mL","<",2,"CFU/100 mL","<",2,"CFU/100 mL",
"200211COLIPL.csv","2004JUN22104013","1114021610","E10","20021114",929,40,"m","e",300,"CFU/100 mL","e",26,"CFU/100 mL","e",2,"CFU/100 mL",
"200211COLIPL.csv","2004JUN22104013","1114021611","E10","20021114",929,60,"m",">",16000,"CFU/100 mL","",6800,"CFU/100 mL","e",250,"CFU/100 mL",
"200211COLIPL.csv","2004JUN22104013","1114021612","E10","20021114",929,80,"m",">",16000,"CFU/100 mL","",7600,"CFU/100 mL","",1400,"CFU/100 mL",
"200211COLIPL.csv","2004JUN22104013","1114021613","E10","20021114",929,88,"m","",2200,"CFU/100 mL","e",450,"CFU/100 mL","",76,"CFU/100 mL",
"200211COLIPL.csv","2004JUN22104013","1114021614","E12","20021114",910,1,"m","e",4,"CFU/100 mL","<",2,"CFU/100 mL","<",2,"CFU/100 mL",
"200211COLIPL.csv","2004JUN22104013","1114021615","E12","20021114",910,40,"m","<",2,"CFU/100 mL","<",2,"CFU/100 mL","e",2,"CFU/100 mL",
"200211COLIPL.csv","2004JUN22104013","1114021616","E12","20021114",910,60,"m","<",2,"CFU/100 mL","<",2,"CFU/100 mL","<",2,"CFU/100 mL",
"200211COLIPL.csv","2004JUN22104013","1114021617","E12","20021114",910,80,"m","e",600,"CFU/100 mL","e",150,"CFU/100 mL","e",2,"CFU/100 mL",
"200211COLIPL.csv","2004JUN22104013","1114021618","E12","20021114",910,98,"m","",48,"CFU/100 mL","e",18,"CFU/100 mL","e",2,"CFU/100 mL",
"200211COLIPL.csv","2004JUN22104013","1114021619","E12","20021114",910,116,"m","e",26,"CFU/100 mL","<",2,"CFU/100 mL","<",2,"CFU/100 mL",
"200211COLIPL.csv","2004JUN22104013","1114021620","E14","20021114",844,1,"m","e",14,"CFU/100 mL","e",4,"CFU/100 mL","<",2,"CFU/100 mL",
"200211COLIPL.csv","2004JUN22104013","1114021621","E14","20021114",844,40,"m","e",6,"CFU/100 mL","<",2,"CFU/100 mL","<",2,"CFU/100 mL",
"200211COLIPL.csv","2004JUN22104013","1114021622","E14","20021114",844,60,"m","e",18,"CFU/100 mL","<",2,"CFU/100 mL","e",4,"CFU/100 mL",
"200211COLIPL.csv","2004JUN22104013","1114021623","E14","20021114",844,80,"m",">",16000,"CFU/100 mL",">",12000,"CFU/100 mL","e",450,"CFU/100 mL",
"200211COLIPL.csv","2004JUN22104013","1114021624","E14","20021114",844,98,"m","",7600,"CFU/100 mL","",62,"CFU/100 mL","",46,"CFU/100 mL",
"200211COLIPL.csv","2004JUN22104013","1114021625","E16","20021114",827,1,"m","e",2,"CFU/100 mL","e",6,"CFU/100 mL","e",2,"CFU/100 mL",
"200211COLIPL.csv","2004JUN22104013","1114021626","E16","20021114",827,40,"m","e",2,"CFU/100 mL","<",2,"CFU/100 mL","<",2,"CFU/100 mL",
"200211COLIPL.csv","2004JUN22104013","1114021627","E16","20021114",827,60,"m","e",250,"CFU/100 mL","e",36,"CFU/100 mL","e",14,"CFU/100 mL",
"200211COLIPL.csv","2004JUN22104013","1114021628","E16","20021114",827,80,"m",">",16000,"CFU/100 mL","",4600,"CFU/100 mL","",2000,"CFU/100 mL",
"200211COLIPL.csv","2004JUN22104013","1114021629","E16","20021114",827,88,"m","",1800,"CFU/100 mL","e",250,"CFU/100 mL","e",150,"CFU/100 mL",
"200211COLIPL.csv","2004JUN22104013","1114021630","E18","20021114",800,1,"m","<",2,"CFU/100 mL","<",2,"CFU/100 mL","<",2,"CFU/100 mL",
"200211COLIPL.csv","2004JUN22104013","1114021631","E18","20021114",800,40,"m","<",2,"CFU/100 mL","<",2,"CFU/100 mL","<",2,"CFU/100 mL",
"200211COLIPL.csv","2004JUN22104013","1114021632","E18","20021114",800,60,"m","e",4,"CFU/100 mL","<",2,"CFU/100 mL","<",2,"CFU/100 mL",
"200211COLIPL.csv","2004JUN22104013","1114021633","E18","20021114",800,80,"m","e",4,"CFU/100 mL","<",2,"CFU/100 mL","<",2,"CFU/100 mL",
"200211COLIPL.csv","2004JUN22104013","1114021634","E18","20021114",800,98,"m","e",850,"CFU/100 mL","",250,"CFU/100 mL","e",28,"CFU/100 mL",
"200211COLIPL.csv","2004JUN22104013","1114021635","E18","20021114",800,116,"m","",120,"CFU/100 mL","e",14,"CFU/100 mL","e",4,"CFU/100 mL",
"200211COLIPL.csv","2004JUN22104013","1114021636","E2","20021114",1036,1,"m","e",2,"CFU/100 mL","<",2,"CFU/100 mL","<",2,"CFU/100 mL",
"200211COLIPL.csv","2004JUN22104013","1114021637","E2","20021114",1036,40,"m","e",4,"CFU/100 mL","e",2,"CFU/100 mL","<",2,"CFU/100 mL",
"200211COLIPL.csv","2004JUN22104013","1114021638","E2","20021114",1036,60,"m","e",22,"CFU/100 mL","e",2,"CFU/100 mL","<",2,"CFU/100 mL",
"200211COLIPL.csv","2004JUN22104013","1114021639","E2","20021114",1036,80,"m",">",16000,"CFU/100 mL","",10000,"CFU/100 mL","e",500,"CFU/100 mL",
"200211COLIPL.csv","2004JUN22104013","1114021640","E2","20021114",1036,98,"m","",7000,"CFU/100 mL","",2000,"CFU/100 mL","e",300,"CFU/100 mL",
"200211COLIPL.csv","2004JUN22104013","1114021641","E5","20021114",1017,1,"m","e",2,"CFU/100 mL","e",10,"CFU/100 mL","<",2,"CFU/100 mL",
"200211COLIPL.csv","2004JUN22104013","1114021642","E5","20021114",1017,40,"m","e",16,"CFU/100 mL","e",2,"CFU/100 mL","<",2,"CFU/100 mL",
"200211COLIPL.csv","2004JUN22104013","1114021643","E5","20021114",1017,60,"m","e",20,"CFU/100 mL","e",6,"CFU/100 mL","<",2,"CFU/100 mL",
"200211COLIPL.csv","2004JUN22104013","1114021644","E5","20021114",1017,80,"m",">",16000,"CFU/100 mL","",6800,"CFU/100 mL","e",250,"CFU/100 mL",
"200211COLIPL.csv","2004JUN22104013","1114021645","E5","20021114",1017,98,"m","",15000,"CFU/100 mL","e",3200,"CFU/100 mL","e",350,"CFU/100 mL",
"200211COLIPL.csv","2004JUN22104013","1114021646","E8","20021114",1000,1,"m","",84,"CFU/100 mL","e",18,"CFU/100 mL","e",4,"CFU/100 mL",
"200211COLIPL.csv","2004JUN22104013","1114021647","E8","20021114",1000,40,"m","e",10,"CFU/100 mL","e",6,"CFU/100 mL","<",2,"CFU/100 mL",
"200211COLIPL.csv","2004JUN22104013","1114021648","E8","20021114",1000,60,"m","e",14,"CFU/100 mL","e",2,"CFU/100 mL","<",2,"CFU/100 mL",
"200211COLIPL.csv","2004JUN22104013","1114021649","E8","20021114",1000,80,"m",">",16000,"CFU/100 mL","",7800,"CFU/100 mL","e",200,"CFU/100 mL",
"200211COLIPL.csv","2004JUN22104013","1114021650","E8","20021114",1000,98,"m","",7800,"CFU/100 mL","",1000,"CFU/100 mL","e",28,"CFU/100 mL",
"200211COLIPL.csv","2004JUN22104013","1116021725","D1","20021116",907,,"m","e",14,"CFU/100 mL","e",2,"CFU/100 mL","e",2,"CFU/100 mL",
"200211COLIPL.csv","2004JUN22104013","1116021726","D2","20021116",921,,"m","e",8,"CFU/100 mL","<",2,"CFU/100 mL","e",18,"CFU/100 mL",
"200211COLIPL.csv","2004JUN22104013","1116021727","D3","20021116",940,,"m","e",4,"CFU/100 mL","<",2,"CFU/100 mL","<",2,"CFU/100 mL",
"200211COLIPL.csv","2004JUN22104013","1116021728","D4","20021116",811,,"m","e",100,"CFU/100 mL","e",6,"CFU/100 mL","e",18,"CFU/100 mL",
"200211COLIPL.csv","2004JUN22104013","1116021729","D5","20021116",824,,"m","e",10,"CFU/100 mL","<",2,"CFU/100 mL","<",2,"CFU/100 mL",
"200211COLIPL.csv","2004JUN22104013","1116021730","D6","20021116",758,,"m","e",6,"CFU/100 mL","<",2,"CFU/100 mL","e",2,"CFU/100 mL",